Simultaneous Nadir Overpasses (SNOs) Predictions

Prediction of SNOs over PacNW region [( 10.00, 139.50) to ( 22.70, 165.60)] between AQUA and NPP Satellites:

Table of predicted SNOs over PacNW region for the next 30.0 days since TLE Epoch: 4/17/2021
Index Date (AQUA) Time (AQUA) AQUA Lat,Lon Date (NPP) Time (NPP) NPP Lat,Lon Distance(km) Time Diff (sec)
1 04/17/2021 15:09:49 22.60, 159.84 04/17/2021 15:10:22 23.16, 157.31 266.19 33
2 04/25/2021 15:59:14 22.61, 147.48 04/25/2021 16:01:01 23.25, 144.67 296.61 107
3 05/03/2021 15:09:45 22.61, 159.85 05/03/2021 15:10:13 23.15, 157.35 262.31 28
4 05/11/2021 15:59:08 22.60, 147.49 05/11/2021 16:00:51 23.25, 144.72 293.40 103
